Location: Caltech
(34.1382°N, 118.1253°W)
Time: 01:23:59
(UTC-08:00)

ERBS - Visible Passes

Search period start: 27 February 2017 00:00
Search period end: 09 March 2017 00:00
Orbit: 433 x 442 km, 57.0° (Epoch: 26 February)

Date Brightness Start Highest point End Pass type
(mag) Time Alt. Az. Time Alt. Az. Time Alt. Az.
03 Mar 5.3 05:22:28 10° SSE 05:24:51 17° ESE 05:27:14 10° ENE visible
05 Mar 2.4 05:35:21 10° SW 05:38:49 88° SE 05:42:19 10° NE visible
06 Mar 3.3 04:55:03 16° SSW 04:57:37 47° SE 05:00:59 10° NE visible
07 Mar 4.2 04:16:11 26° SE 04:16:27 26° ESE 04:19:25 10° ENE visible
08 Mar 5.8 03:37:06 11° E 03:37:06 11° E 03:37:25 10° E visible
08 Mar 3.2 05:10:29 25° W 05:11:46 33° NW 05:14:59 10° NNE visible
